STARLINK-5483 (55643 NORAD) Tracking and Keplerian Element Data

This shows tracking and keplerian element data for the satellite.

Feedback or suggestion? Click here.




ElementValue
Catalog55643
NameSTARLINK-5483
Epoch Orbit130
Epoch Day62.91667824
Epoch Year2023
RAAN110.1961
Inclination70.0001
Eccentricity0.0003482
Argument of Perigee269.2193
Mean Anonmoly329.7219
Mean Motion15.75024471
Decay Rate-0.00972887
L11 55643U 23021R 23062.91667824 -.00972887 00000+0 -73008-2 0 9999
L22 55643 70.0001 110.1961 0003482 269.2193 329.7219 15.75024471 1304



Live tracking and technical data element details for STARLINK-5483 (NORAD 55643). STARLINK-5483 can be tracked NOW for your location showing map with azimuth and elevation plus other details from your city location.







IsCatalogInMostPopularTable: catalog: 55643, numindb: 2
Update: records affected: 1



GetName: 55643 STARLINK-5483

Hit Count: updated at: Wed, 22 Mar 2023 15:58:16 GMT